QPF
0.00 0.00 0.00 0.00 0.00 0.00 0.00 0.00 0.00 0.00 0.00 0.00 0.00 0.00 0.00 0.00 0.00 0.00 0.00 0.00 0.00 0.00 0.00 0.00 0.00 0.00 0.00 0.00 0.00 0.00 0.00 0.00 0.00 0.00 0.00 0.00 0.00 0.00 0.00 0.00 0.00 0.00 0.00 0.00 0.00
0.00 0.00 0.00 0.00 0.00 0.00 0.00 0.00 0.00 0.00 0.00 0.00 0.00 0.00 0.00 0.00 0.00 0.00 0.00 0.00 0.00 0.00 0.00 0.00 0.00 0.00 0.00 0.00 0.00 0.00 0.00 0.00 0.00 0.00 0.00 0.00 0.00 0.00 0.00 0.00 0.00 0.00 0.00 0.00 0.00
0.00 0.00 0.00 0.00 0.00 0.00 0.00 0.00 0.00 0.00 0.00 0.00 0.00 0.00 0.00 0.00 0.00 0.00 0.00 0.00 0.00 0.00 0.00 0.00 0.00 0.00 0.00 0.00 0.00 0.00 0.00 0.00 0.00 0.00 0.00 0.00 0.00 0.00 0.00 0.00 0.00 0.00 0.00 0.00 0.00
0.00 0.00 0.00 0.00 0.00 0.00 0.00 0.00 0.00 0.00 0.00 0.00 0.00 0.00 0.00 0.00 0.00 0.00 0.00 0.00 0.00 0.00 0.00 0.00 0.00 0.00 0.00 0.00 0.00 0.00 0.00 0.00 0.00 0.00 0.00 0.00 0.00 0.00 0.00 0.00 0.00 0.00 0.00 0.00 0.00
0.00 0.00 0.00 0.00 0.00 0.00 0.00 0.00 0.00 0.00 0.00 0.00 0.00 0.00 0.00 0.00 0.00 0.00 0.00 0.00 0.00 0.00 0.00 0.00 0.00 0.00 0.00 0.00 0.00 0.00 0.00 0.00 0.00 0.00 0.00 0.00 0.00 0.00 0.00 0.00 0.00 0.00 0.00 0.00 0.00
0.00 0.00 0.00 0.00 0.00 0.00 0.00 0.00 0.00 0.00 0.00 0.00 0.00 0.00 0.00 0.00 0.00 0.00 0.00 0.00 0.00 0.00 0.00 0.00 0.00 0.00 0.00 0.00 0.00 0.00 0.00 0.00 0.00 0.00 0.00 0.00 0.00 0.00 0.00 0.00 0.00 0.00 0.00 0.00 0.00
0.00 0.00 0.00 0.00 0.00 0.00 0.00 0.00 0.00 0.00 0.00 0.00 0.00 0.00 0.00 0.00 0.00 0.00 0.00 0.00 0.00 0.00 0.00 0.00 0.00 0.00 0.00 0.00 0.00 0.00 0.00 0.00 0.00 0.00 0.00 0.00 0.00 0.00 0.00 0.00 0.00 0.00 0.00 0.00 0.00
0.00 0.00 0.00 0.00 0.00 0.00 0.00 0.00 0.00 0.00 0.00 0.00 0.00 0.00 0.00 0.00 0.00 0.00 0.00 0.00 0.00 0.00 0.00 0.00 0.00 0.00 0.00 0.00 0.00 0.00 0.00 0.00 0.00 0.00 0.00 0.00 0.00 0.00 0.00 0.00 0.00 0.00 0.00 0.00 0.00
0.00 0.00 0.00 0.00 0.00 0.00 0.00 0.00 0.00 0.00 0.00 0.00 0.00 0.00 0.00 0.00 0.00 0.00 0.00 0.00 0.00 0.00 0.00 0.00 0.00 0.00 0.00 0.00 0.00 0.00 0.00 0.00 0.00 0.00 0.00 0.00 0.00 0.00 0.00 0.00 0.00 0.00 0.00 0.00 0.00
0.00 0.00 0.00 0.00 0.00 0.00 0.00 0.00 0.00 0.00 0.00 0.00 0.00 0.00 0.00 0.00 0.00 0.00 0.00 0.00 0.00 0.00 0.00 0.00 0.00 0.00 0.00 0.00 0.00 0.00 0.00 0.00 0.00 0.00 0.00 0.00 0.00 0.00 0.00 0.00 0.00 0.00 0.00 0.00 0.00
0.00 0.00 0.00 0.00 0.00 0.00 0.00 0.00 0.00 0.00 0.00 0.00 0.00 0.00 0.00 0.00 0.00 0.00 0.00 0.00 0.00 0.00 0.00 0.00 0.00 0.00 0.00 0.00 0.00 0.00 0.00 0.00 0.00 0.00 0.00 0.00 0.00 0.00 0.00 0.00 0.00 0.00 0.00 0.00 0.00
0.00 0.00 0.00 0.00 0.00 0.00 0.00 0.00 0.00 0.00 0.00 0.00 0.00 0.00 0.00 0.00 0.00 0.00 0.00 0.00 0.00 0.00 0.00 0.00 0.00 0.00 0.00 0.00 0.00 0.00 0.00 0.00 0.00 0.00 0.00 0.00 0.00 0.00 0.00 0.00 0.00 0.00 0.00 0.00 0.00
0.00 0.00 0.00 0.00 0.00 0.00 0.00 0.00 0.00 0.00 0.00 0.00 0.00 0.00 0.00 0.00 0.00 0.00 0.00 0.00 0.00 0.00 0.00 0.00 0.00 0.00 0.00 0.00 0.00 0.00 0.00 0.00 0.00 0.00 0.00 0.00 0.00 0.00 0.00 0.00 0.00 0.00 0.00 0.00 0.00
0.00 0.00 0.00 0.00 0.00 0.00 0.00 0.00 0.00 0.00 0.00 0.00 0.00 0.00 0.00 0.00 0.00 0.00 0.00 0.00 0.00 0.00 0.00 0.00 0.00 0.00 0.00 0.00 0.00 0.00 0.00 0.00 0.00 0.00 0.00 0.00 0.00 0.00 0.00 0.00 0.00 0.00 0.00 0.00 0.00
0.00 0.00 0.00 0.00 0.00 0.00 0.00 0.00 0.00 0.00 0.00 0.00 0.00 0.00 0.00 0.00 0.00 0.00 0.00 0.00 0.00 0.00 0.00 0.00 0.00 0.00 0.00 0.00 0.00 0.00 0.00 0.00 0.00 0.00 0.00 0.00 0.00 0.00 0.00 0.00 0.00 0.00 0.00 0.00 0.00
0.00 0.00 0.00 0.00 0.00 0.00 0.00 0.00 0.00 0.00 0.00 0.00 0.00 0.00 0.00 0.00 0.00 0.00 0.00 0.00 0.00 0.00 0.00 0.00 0.00 0.00 0.00 0.00 0.00 0.00 0.00 0.00 0.00 0.00 0.00 0.00 0.00 0.00 0.00 0.00 0.00 0.00 0.00 0.00 0.00
0.00 0.00 0.00 0.00 0.00 0.00 0.00 0.00 0.00 0.00 0.00 0.00 0.00 0.00 0.00 0.00 0.00 0.00 0.00 0.00 0.00 0.00 0.00 0.00 0.00 0.00 0.00 0.00 0.00 0.00 0.00 0.00 0.00 0.00 0.00 0.00 0.00 0.00 0.00 0.00 0.00 0.00 0.00 0.00 0.00
0.00 0.00 0.00 0.00 0.00 0.00 0.00 0.00 0.00 0.00 0.00 0.00 0.00 0.00 0.00 0.00 0.00 0.00 0.00 0.00 0.00 0.00 0.00 0.00 0.00 0.00 0.00 0.00 0.00 0.00 0.00 0.00 0.00 0.00 0.00 0.00 0.00 0.00 0.00 0.00 0.00 0.00 0.00 0.00 0.00
0.12 0.09 0.04 0.00 0.00 0.00 0.00 0.00 0.00 0.00 0.00 0.00 0.00 0.00 0.00 0.00 0.00 0.00 0.00 0.00 0.00 0.00 0.00 0.00 0.00 0.00 0.00 0.00 0.00 0.00 0.00 0.00 0.00 0.00 0.00 0.00 0.00 0.00 0.00 0.00 0.00 0.00 0.00 0.00 0.00
0.37 0.39 0.15 0.04 0.04 0.03 0.01 0.00 0.00 0.00 0.00 0.00 0.00 0.00 0.00 0.00 0.00 0.00 0.00 0.00 0.00 0.00 0.00 0.00 0.00 0.00 0.00 0.00 0.00 0.00 0.00 0.00 0.00 0.00 0.00 0.00 0.00 0.00 0.00 0.00 0.00 0.00 0.00 0.00 0.00
0.47 0.52 0.21 0.05 0.39 0.52 0.26 0.05 0.00 0.00 0.00 0.00 0.00 0.00 0.00 0.00 0.00 0.00 0.00 0.00 0.00 0.00 0.00 0.00 0.00 0.00 0.00 0.00 0.00 0.00 0.00 0.00 0.00 0.00 0.00 0.00 0.00 0.00 0.00 0.00 0.00 0.00 0.00 0.00 0.00
0.25 0.33 0.23 0.08 0.34 0.51 0.35 0.08 0.00 0.00 0.00 0.00 0.00 0.00 0.00 0.00 0.00 0.00 0.00 0.00 0.00 0.00 0.00 0.00 0.00 0.01 0.00 0.00 0.00 0.00 0.00 0.00 0.00 0.00 0.00 0.00 0.00 0.00 0.00 0.00 0.00 0.00 0.00 0.00 0.00
0.10 0.08 0.13 0.21 0.27 0.33 0.21 0.05 0.01 0.02 0.00 0.01 0.01 0.00 0.00 0.00 0.01 0.00 0.00 0.00 0.00 0.00 0.00 0.00 0.03 0.04 0.00 0.00 0.00 0.00 0.00 0.00 0.00 0.00 0.00 0.00 0.00 0.00 0.00 0.00 0.00 0.00 0.00 0.00 0.00
0.17 0.11 0.11 0.21 0.12 0.07 0.05 0.02 0.01 0.00 0.00 0.00 0.01 0.01 0.01 0.01 0.00 0.01 0.00 0.00 0.00 0.00 0.00 0.01 0.09 0.06 0.01 0.00 0.00 0.00 0.00 0.00 0.00 0.00 0.00 0.00 0.00 0.00 0.00 0.00 0.00 0.00 0.00 0.00 0.00
0.22 0.16 0.05 0.09 0.08 0.03 0.01 0.01 0.01 0.00 0.00 0.00 0.01 0.03 0.02 0.01 0.02 0.03 0.01 0.00 0.00 0.00 0.00 0.01 0.08 0.03 0.00 0.00 0.00 0.00 0.00 0.00 0.00 0.00 0.00 0.00 0.00 0.00 0.00 0.00 0.00 0.00 0.00 0.00 0.00
0.18 0.21 0.20 0.16 0.06 0.02 0.02 0.04 0.02 0.00 0.00 0.00 0.00 0.00 0.00 0.00 0.04 0.02 0.00 0.00 0.01 0.03 0.01 0.01 0.08 0.02 0.01 0.00 0.00 0.00 0.00 0.00 0.00 0.00 0.00 0.00 0.00 0.00 0.00 0.00 0.00 0.00 0.00 0.00 0.00
0.04 0.14 0.29 0.33 0.18 0.13 0.13 0.04 0.01 0.00 0.00 0.00 0.00 0.00 0.00 0.00 0.00 0.00 0.00 0.02 0.10 0.08 0.04 0.03 0.04 0.04 0.11 0.01 0.00 0.05 0.01 0.00 0.00 0.00 0.00 0.00 0.00 0.00 0.00 0.00 0.00 0.00 0.00 0.00 0.00
MSLP
1019.74 1019.38 1019.03 1018.61 1018.28 1017.94 1017.57 1017.17 1016.76 1016.47 1016.30 1016.11 1015.90 1015.60 1015.31 1015.07 1014.91 1014.81 1013.76 1013.50 1013.56 1013.96 1014.02 1013.66 1013.42 1013.18 1013.12 1012.65 1012.61 1012.20 1010.77 1009.01 1008.67 1008.95 1008.79 1009.96 1010.23 1010.95 1011.33 1011.18 1011.85 1012.28 1012.54 1013.65 1014.35
1019.97 1019.68 1019.28 1018.90 1018.52 1018.11 1017.72 1017.33 1016.90 1016.45 1016.12 1015.98 1015.82 1015.62 1015.30 1015.09 1014.49 1013.68 1013.05 1013.28 1013.55 1013.80 1013.52 1013.13 1012.69 1012.87 1012.36 1012.29 1012.22 1011.64 1010.30 1008.93 1009.09 1009.16 1009.47 1010.00 1010.40 1010.41 1011.35 1011.03 1010.99 1011.67 1012.73 1014.11 1014.77
1020.20 1019.88 1019.55 1019.11 1018.73 1018.33 1017.86 1017.36 1016.94 1016.52 1016.14 1015.84 1015.62 1015.46 1015.26 1014.92 1014.13 1012.36 1013.05 1013.34 1013.53 1013.63 1013.27 1012.94 1012.65 1012.56 1012.03 1011.94 1011.53 1011.05 1009.95 1009.46 1009.52 1009.81 1010.17 1010.12 1010.27 1010.44 1010.51 1009.82 1009.47 1009.95 1011.09 1013.29 1014.24
1020.27 1020.03 1019.72 1019.33 1018.83 1018.41 1017.98 1017.47 1016.96 1016.52 1016.10 1015.77 1015.52 1015.25 1015.08 1014.57 1013.49 1012.76 1013.22 1013.49 1013.60 1013.33 1013.13 1012.77 1012.53 1012.21 1011.63 1011.32 1011.12 1011.07 1010.08 1010.09 1010.08 1010.53 1010.82 1010.55 1010.17 1009.91 1009.76 1008.57 1008.90 1009.21 1009.65 1011.53 1013.05
1020.30 1020.03 1019.75 1019.37 1018.89 1018.33 1017.89 1017.46 1016.92 1016.48 1016.10 1015.66 1015.39 1015.14 1015.05 1013.99 1012.51 1012.81 1013.08 1013.33 1013.34 1013.39 1012.95 1012.64 1012.21 1011.67 1011.17 1010.82 1011.15 1010.98 1010.15 1010.45 1010.56 1011.00 1011.08 1010.88 1010.44 1009.92 1008.62 1008.38 1008.75 1009.36 1010.17 1010.82 1011.94
1020.24 1020.06 1019.77 1019.38 1018.85 1018.23 1017.69 1017.16 1016.74 1016.31 1015.85 1015.53 1015.29 1015.12 1014.65 1013.38 1012.48 1012.61 1012.97 1013.16 1012.76 1012.83 1012.58 1012.51 1011.96 1011.94 1011.47 1011.20 1011.25 1010.79 1010.63 1010.34 1010.40 1010.71 1010.96 1010.89 1010.15 1010.10 1007.69 1007.79 1008.02 1008.57 1009.52 1010.21 1010.70
1020.09 1019.85 1019.62 1019.29 1018.84 1018.23 1017.51 1016.93 1016.40 1016.00 1015.51 1015.14 1015.14 1014.61 1013.72 1012.37 1012.25 1012.53 1012.84 1012.88 1012.99 1012.65 1012.39 1012.61 1012.39 1012.15 1011.76 1011.15 1011.25 1010.98 1010.53 1009.52 1009.55 1010.06 1010.51 1010.75 1009.96 1008.51 1007.32 1007.81 1007.82 1008.01 1008.44 1009.14 1009.55
1019.95 1019.69 1019.35 1019.05 1018.66 1018.17 1017.42 1016.63 1016.08 1015.43 1015.18 1014.93 1014.89 1014.37 1012.84 1012.46 1012.35 1012.77 1012.76 1012.95 1013.03 1012.91 1012.65 1012.75 1012.63 1012.16 1011.85 1011.69 1011.08 1010.53 1009.88 1008.66 1007.95 1009.58 1010.48 1010.60 1007.65 1006.72 1006.33 1006.92 1007.30 1007.30 1007.41 1007.93 1008.30
1019.92 1019.53 1019.13 1018.67 1018.31 1017.82 1017.09 1016.17 1015.60 1015.19 1014.81 1014.89 1014.71 1013.93 1012.43 1012.85 1012.48 1012.33 1012.55 1012.52 1012.92 1013.09 1013.10 1012.99 1012.68 1011.99 1012.02 1011.19 1010.10 1008.83 1008.09 1007.54 1007.51 1008.71 1009.70 1009.99 1007.33 1006.05 1006.52 1006.82 1006.59 1006.30 1006.07 1006.12 1006.82
1020.04 1019.64 1019.12 1018.61 1017.97 1017.35 1016.54 1015.44 1015.01 1015.12 1014.68 1014.36 1014.11 1014.02 1012.16 1012.14 1012.31 1012.41 1012.65 1012.69 1012.64 1012.92 1012.96 1012.72 1012.11 1011.35 1010.71 1010.05 1008.51 1007.32 1006.96 1006.71 1006.67 1007.80 1008.87 1008.73 1007.43 1006.11 1006.14 1005.99 1005.46 1004.98 1005.04 1004.98 1004.97
1020.10 1019.72 1019.36 1018.69 1018.04 1017.21 1016.07 1014.91 1015.21 1014.86 1014.07 1012.61 1012.24 1011.81 1011.83 1012.49 1012.72 1012.61 1012.61 1012.62 1012.47 1012.43 1011.82 1011.78 1011.19 1009.38 1008.63 1008.51 1008.31 1007.93 1007.48 1007.05 1006.17 1007.13 1008.21 1007.54 1007.11 1006.05 1005.44 1005.21 1004.70 1003.87 1003.59 1003.53 1003.77
1019.90 1019.67 1019.32 1018.88 1018.10 1017.23 1016.42 1015.48 1016.63 1017.20 1014.51 1012.33 1012.18 1012.04 1011.94 1012.09 1012.30 1012.35 1012.69 1012.45 1012.00 1011.23 1011.11 1011.50 1009.88 1008.53 1008.52 1008.46 1008.51 1008.13 1007.89 1006.88 1006.61 1006.86 1008.38 1007.47 1006.60 1005.94 1005.45 1004.31 1003.77 1003.27 1002.42 1002.31 1002.78
1019.49 1019.50 1019.23 1018.78 1018.10 1017.23 1016.18 1016.29 1016.68 1016.73 1015.32 1012.07 1011.48 1011.43 1011.59 1012.04 1011.39 1011.15 1012.01 1011.63 1011.25 1010.86 1010.16 1009.60 1008.35 1008.97 1009.04 1008.85 1009.06 1008.42 1008.06 1007.23 1007.30 1007.33 1008.26 1007.89 1005.89 1004.90 1004.13 1003.49 1003.03 1002.49 1001.80 1001.82 1002.37
1019.14 1019.23 1019.05 1018.61 1018.53 1017.81 1016.95 1017.33 1016.65 1016.22 1014.22 1011.35 1011.57 1011.53 1011.91 1011.97 1011.86 1011.93 1011.70 1011.63 1011.08 1010.26 1009.97 1009.15 1008.64 1008.80 1008.97 1008.86 1009.12 1008.61 1007.97 1007.83 1007.90 1008.30 1007.12 1007.33 1003.35 1003.31 1002.89 1002.29 1002.11 1001.62 1000.94 1000.79 1001.39
1018.67 1018.97 1019.07 1018.83 1019.00 1018.36 1018.73 1018.08 1017.27 1016.24 1012.96 1010.73 1011.47 1012.28 1011.98 1011.87 1012.00 1012.15 1012.30 1011.83 1010.69 1010.32 1010.35 1008.18 1008.87 1009.45 1009.45 1008.76 1008.95 1008.95 1009.11 1008.81 1008.59 1008.17 1007.29 1006.74 1004.90 1001.95 1001.96 1001.58 1001.54 1001.03 1000.29 1000.13 1001.27
1018.30 1018.54 1018.92 1018.69 1018.35 1018.21 1018.57 1018.59 1017.90 1015.47 1010.30 1009.93 1010.51 1011.39 1011.74 1011.52 1011.61 1012.11 1012.16 1011.82 1011.41 1010.60 1010.14 1009.13 1009.81 1009.68 1009.11 1009.79 1009.98 1010.11 1009.71 1009.25 1008.84 1008.24 1005.61 1004.77 1003.88 1000.98 1000.78 1000.97 1000.90 1000.53 1000.02 1000.64 1001.75
1017.83 1018.24 1018.70 1018.25 1017.45 1017.99 1018.18 1017.99 1016.61 1012.12 1008.82 1008.30 1008.73 1009.68 1010.21 1010.38 1010.74 1010.95 1011.19 1011.12 1010.37 1010.16 1009.03 1008.04 1008.56 1009.06 1009.77 1010.06 1010.52 1010.48 1009.92 1008.45 1007.34 1006.69 1002.59 1002.89 1001.43 999.89 999.97 1000.13 1000.31 999.65 999.76 1000.79 1002.00
1017.05 1017.49 1017.73 1017.85 1017.49 1017.88 1017.67 1017.00 1014.08 1009.38 1008.53 1008.23 1008.41 1008.82 1008.70 1008.56 1009.18 1009.70 1009.74 1009.56 1009.18 1008.85 1008.03 1007.42 1007.54 1008.32 1008.81 1008.74 1008.41 1009.35 1009.03 1008.18 1006.39 1005.66 1001.86 1002.58 999.44 998.55 998.47 998.72 999.24 999.17 999.66 1000.87 1002.13
1016.48 1016.71 1016.79 1016.78 1017.45 1017.57 1017.23 1014.92 1009.04 1008.69 1008.41 1008.41 1008.92 1008.23 1007.57 1007.78 1008.11 1008.45 1008.01 1006.90 1006.92 1007.63 1007.39 1006.54 1006.40 1008.08 1008.82 1008.98 1008.98 1009.41 1009.33 1008.32 1007.31 1005.77 1003.68 1000.57 998.55 997.64 998.15 998.44 998.66 999.29 1000.15 1000.82 1001.82
1016.22 1016.47 1015.81 1016.28 1017.21 1016.55 1016.18 1012.05 1008.82 1008.04 1008.24 1007.88 1007.31 1006.69 1006.01 1006.12 1007.02 1007.15 1006.21 1004.96 1005.68 1006.11 1006.28 1005.58 1006.34 1007.06 1009.20 1009.65 1009.64 1009.16 1008.68 1008.57 1008.20 1006.19 1003.56 998.46 998.27 997.73 997.92 997.49 998.39 999.21 999.71 999.85 1000.68
1015.75 1015.66 1014.48 1015.09 1017.59 1017.65 1015.74 1012.22 1010.37 1009.12 1009.14 1008.22 1007.07 1006.36 1005.53 1005.38 1004.94 1005.22 1004.50 1004.35 1004.72 1005.41 1006.38 1006.32 1006.87 1007.10 1008.80 1008.39 1007.78 1009.27 1008.27 1008.07 1007.61 1005.85 1004.01 1000.35 997.01 996.15 996.98 997.04 997.58 998.60 999.39 999.59 1000.05
1015.11 1014.89 1014.87 1015.12 1016.67 1015.98 1015.38 1013.20 1011.59 1010.13 1009.94 1008.90 1007.88 1007.58 1006.60 1005.97 1005.25 1004.83 1004.08 1004.11 1004.68 1005.59 1006.53 1006.82 1007.12 1007.13 1006.12 1006.07 1006.66 1006.70 1006.21 1006.25 1006.01 1004.55 1003.79 1002.17 994.16 996.74 996.27 996.82 997.52 998.26 998.86 999.40 999.95
1014.25 1014.01 1014.49 1014.43 1013.85 1013.79 1013.31 1012.16 1011.80 1010.58 1009.95 1009.96 1009.66 1008.57 1007.42 1007.28 1006.98 1005.80 1004.92 1004.55 1004.96 1005.75 1006.09 1007.09 1008.17 1008.12 1006.74 1007.21 1006.97 1006.30 1005.82 1005.68 1005.03 1004.53 1001.98 1002.63 994.20 996.18 996.15 996.89 997.29 997.80 998.15 998.67 998.90
1014.27 1013.36 1013.80 1013.09 1011.90 1012.08 1011.96 1011.02 1010.51 1008.82 1008.84 1008.79 1008.82 1009.28 1009.10 1007.79 1007.54 1005.97 1006.21 1005.47 1005.40 1005.79 1006.44 1006.69 1008.15 1008.99 1007.36 1004.31 1003.80 1004.95 1005.05 1005.10 1004.98 1003.61 1001.28 999.94 999.03 995.47 995.78 996.49 996.23 996.67 996.64 997.24 997.41
1014.16 1011.97 1011.38 1011.52 1011.04 1010.60 1010.40 1009.83 1009.03 1008.13 1007.67 1007.57 1007.38 1007.73 1007.78 1007.32 1007.18 1006.87 1006.58 1005.53 1005.85 1006.43 1007.26 1007.65 1008.06 1008.47 1007.31 1005.61 1004.64 1004.81 1004.35 1004.11 1002.97 1002.34 1001.86 998.39 999.24 996.65 995.21 996.14 995.41 995.50 995.49 996.53 996.34
1014.40 1013.18 1011.92 1010.83 1010.19 1009.58 1009.52 1008.23 1007.69 1006.62 1006.67 1005.96 1006.20 1005.74 1005.81 1006.11 1005.76 1004.97 1004.93 1005.13 1005.54 1006.38 1007.29 1008.21 1008.16 1008.11 1006.96 1005.34 1004.33 1005.18 1004.33 1002.01 1001.56 1001.41 999.87 999.28 997.93 997.02 995.97 995.39 995.57 994.92 995.20 995.88 995.11
1014.29 1014.13 1013.97 1011.91 1010.65 1009.94 1008.50 1007.21 1006.53 1006.53 1005.48 1005.27 1005.01 1005.21 1004.74 1004.29 1003.90 1003.20 1003.82 1004.13 1005.07 1006.53 1007.41 1007.87 1008.01 1007.57 1005.90 1004.76 1004.67 1003.70 1001.36 1000.25 1000.20 998.63 998.54 998.44 996.60 995.91 994.81 994.61 994.27 994.16 995.31 994.99 995.02
Thickness
5722 5725 5728 5731 5735 5738 5741 5744 5747 5748 5750 5750 5751 5753 5755 5756 5756 5756 5754 5762 5760 5756 5754 5753 5751 5748 5745 5739 5739 5738 5726 5730 5733 5728 5737 5736 5729 5730 5729 5727 5720 5720 5720 5713 5712
5717 5720 5723 5726 5729 5733 5736 5740 5744 5747 5749 5749 5749 5750 5752 5753 5757 5757 5766 5762 5759 5755 5753 5749 5746 5743 5741 5737 5735 5731 5729 5739 5746 5744 5736 5735 5730 5734 5719 5722 5723 5719 5716 5705 5702
5710 5714 5717 5721 5725 5728 5731 5735 5738 5742 5745 5746 5747 5748 5749 5750 5750 5764 5763 5759 5756 5754 5754 5752 5749 5742 5735 5737 5736 5735 5731 5744 5743 5742 5737 5734 5729 5733 5722 5723 5735 5730 5727 5707 5701
5704 5707 5711 5715 5719 5722 5726 5730 5734 5737 5740 5742 5744 5745 5746 5750 5733 5761 5758 5755 5753 5752 5750 5745 5741 5733 5732 5728 5738 5722 5741 5739 5737 5734 5727 5725 5735 5728 5726 5739 5744 5743 5740 5721 5706
5698 5701 5704 5708 5713 5717 5721 5724 5729 5732 5735 5738 5739 5740 5743 5741 5750 5756 5755 5751 5749 5747 5743 5739 5736 5737 5730 5737 5731 5723 5737 5733 5733 5726 5723 5727 5722 5726 5734 5744 5744 5736 5726 5722 5711
5692 5694 5697 5701 5706 5711 5715 5720 5723 5726 5730 5732 5733 5735 5736 5729 5754 5752 5748 5746 5748 5744 5742 5739 5738 5736 5731 5729 5723 5729 5728 5729 5731 5725 5721 5714 5723 5719 5742 5746 5741 5736 5723 5719 5716
5687 5689 5691 5694 5699 5704 5709 5714 5719 5721 5725 5727 5726 5729 5731 5741 5748 5746 5743 5741 5740 5739 5734 5734 5733 5726 5727 5723 5724 5719 5714 5732 5731 5724 5716 5713 5710 5722 5742 5738 5732 5731 5728 5722 5719
5681 5684 5687 5690 5693 5697 5702 5708 5713 5717 5719 5720 5719 5721 5724 5741 5739 5735 5735 5732 5732 5732 5730 5727 5726 5721 5717 5716 5714 5709 5714 5712 5738 5719 5709 5704 5724 5742 5752 5739 5729 5729 5731 5726 5722
5673 5677 5681 5684 5688 5692 5697 5703 5708 5710 5712 5710 5711 5712 5718 5730 5728 5729 5728 5723 5721 5719 5717 5717 5714 5712 5706 5702 5704 5719 5705 5717 5726 5717 5705 5695 5719 5743 5737 5729 5730 5733 5735 5735 5728
5663 5667 5672 5676 5682 5687 5693 5700 5702 5701 5703 5704 5704 5696 5717 5718 5720 5720 5719 5716 5710 5706 5702 5702 5702 5701 5704 5700 5689 5711 5711 5719 5717 5713 5695 5695 5700 5731 5732 5727 5734 5739 5735 5733 5734
5652 5657 5660 5665 5672 5679 5687 5694 5694 5693 5697 5707 5705 5708 5706 5708 5709 5707 5709 5704 5703 5699 5693 5695 5687 5700 5713 5710 5705 5703 5698 5696 5722 5714 5687 5696 5693 5715 5730 5727 5729 5737 5740 5736 5733
5643 5646 5649 5653 5660 5668 5675 5681 5668 5661 5674 5700 5697 5694 5700 5701 5696 5699 5700 5692 5691 5689 5695 5677 5681 5714 5712 5705 5691 5692 5683 5693 5706 5706 5673 5685 5682 5701 5710 5723 5731 5732 5740 5739 5735
5635 5635 5638 5642 5648 5658 5667 5666 5658 5654 5655 5684 5692 5690 5693 5690 5695 5702 5695 5693 5686 5683 5691 5682 5704 5694 5690 5687 5672 5679 5675 5687 5683 5691 5666 5658 5669 5693 5708 5720 5729 5735 5738 5736 5728
5625 5625 5628 5631 5635 5641 5649 5644 5649 5650 5650 5671 5672 5676 5678 5680 5675 5684 5688 5684 5679 5679 5683 5680 5698 5687 5681 5674 5677 5663 5690 5683 5673 5655 5655 5658 5662 5694 5707 5714 5721 5729 5735 5736 5733
5617 5614 5613 5615 5613 5622 5619 5624 5631 5640 5630 5660 5649 5658 5665 5671 5669 5667 5670 5669 5671 5670 5666 5683 5675 5664 5661 5674 5677 5667 5659 5659 5656 5647 5645 5649 5645 5678 5691 5693 5701 5715 5727 5732 5722
5607 5605 5603 5604 5606 5606 5604 5605 5612 5627 5626 5653 5650 5646 5648 5655 5657 5654 5654 5659 5660 5657 5656 5665 5656 5658 5669 5654 5654 5645 5645 5645 5638 5636 5629 5660 5656 5665 5680 5680 5692 5708 5719 5712 5697
5595 5593 5594 5595 5602 5596 5592 5594 5600 5612 5653 5658 5657 5644 5647 5652 5647 5645 5643 5639 5646 5635 5647 5665 5657 5656 5648 5645 5636 5633 5636 5635 5637 5631 5648 5679 5659 5672 5685 5686 5686 5706 5713 5701 5688
5587 5583 5585 5585 5587 5583 5585 5585 5584 5635 5644 5648 5641 5638 5640 5650 5643 5637 5635 5636 5644 5644 5646 5648 5647 5650 5648 5652 5657 5631 5640 5632 5620 5628 5653 5654 5647 5673 5695 5697 5699 5705 5699 5686 5674
5575 5574 5576 5583 5572 5565 5565 5573 5626 5632 5635 5623 5613 5625 5635 5636 5633 5629 5630 5646 5650 5641 5633 5642 5647 5626 5627 5628 5636 5622 5608 5631 5619 5612 5615 5651 5673 5692 5679 5677 5688 5688 5677 5672 5667
5558 5557 5567 5569 5558 5558 5545 5589 5623 5632 5622 5616 5612 5628 5633 5641 5617 5616 5633 5652 5638 5642 5647 5648 5624 5638 5600 5605 5602 5614 5618 5605 5600 5594 5606 5660 5655 5653 5668 5679 5680 5677 5674 5677 5669
5541 5540 5566 5562 5538 5526 5519 5565 5596 5610 5598 5598 5606 5614 5626 5628 5631 5622 5629 5644 5634 5631 5625 5626 5616 5621 5595 5598 5622 5590 5600 5595 5594 5610 5606 5618 5650 5678 5664 5674 5677 5671 5666 5666 5661
5527 5531 5540 5545 5529 5518 5512 5553 5565 5577 5575 5581 5588 5588 5600 5611 5611 5612 5617 5627 5624 5612 5599 5602 5587 5592 5620 5625 5606 5607 5608 5607 5593 5606 5608 5606 5652 5666 5676 5675 5663 5659 5654 5654 5645
5516 5526 5515 5523 5535 5521 5525 5540 5542 5557 5560 5553 5552 5570 5586 5576 5565 5582 5599 5617 5616 5594 5588 5580 5546 5552 5588 5588 5571 5580 5597 5597 5601 5598 5598 5578 5649 5676 5675 5661 5650 5645 5646 5638 5636
5494 5505 5494 5500 5531 5533 5523 5540 5537 5566 5554 5552 5546 5546 5545 5554 5562 5561 5566 5589 5594 5584 5577 5568 5541 5532 5555 5609 5614 5579 5576 5578 5573 5572 5592 5593 5605 5658 5663 5654 5657 5648 5649 5640 5633
5474 5495 5497 5485 5503 5519 5527 5527 5536 5546 5554 5557 5542 5541 5544 5538 5544 5540 5551 5572 5568 5563 5550 5540 5521 5529 5544 5573 5583 5566 5571 5573 5575 5574 5563 5606 5589 5628 5650 5642 5645 5645 5644 5621 5626
5447 5466 5470 5480 5495 5494 5501 5513 5524 5546 5546 5545 5528 5549 5547 5528 5545 5558 5554 5550 5544 5538 5535 5522 5501 5510 5518 5554 5560 5536 5549 5575 5578 5573 5580 5580 5584 5621 5628 5628 5626 5630 5618 5608 5624
5426 5424 5420 5444 5464 5474 5489 5507 5514 5524 5535 5533 5537 5524 5525 5535 5554 5555 5547 5547 5516 5512 5504 5499 5494 5497 5504 5537 5526 5504 5557 5573 5574 5592 5585 5562 5591 5614 5617 5618 5618 5616 5602 5604 5601